Location: *
(37.5724°S, 58.0067°E)
Time: 10:50:29
(UTC+00:00)

USA 229 DEB - Pass Details

Date: 06 December 2021
Orbit: 943 x 1269 km, 63.4° (Epoch: 14 January)

Event Time Altitude Azimuth Distance (km) Brightness Sun altitude
Rises 23:02:44 0° 205° (SSW) 3,937 7.0 -16.0°
Reaches altitude 10° 23:06:47 10° 184° (S) 2,906 6.6 -15.4°
Maximum altitude 23:10:47 16° 148° (SSE) 2,420 6.7 -14.9°
Drops below altitude 10° 23:14:38 10° 111° (ESE) 2,775 7.0 -14.3°
Sets 23:18:20 0° 89° (E) 3,672 7.3 -13.8°
